OpenBCM V1.08-5-g2f4a (Linux)

Packet Radio Mailbox

IZ3LSV

[San Dona' di P. JN]

 Login: GUEST





  
I0OJJ  > KEPS     12.05.25 01:43l 353 Lines 16917 Bytes #4 (0) @ AMSAT
BID : ORB25132.1
Read: GUEST
Subj: 2Line Orbital Elements 25132.AMSAT
Path: IZ3LSV<IK6IHL<IK7NXU<HB9ON<DK0WUE<PD0LPM<PI8ZTM<PY2BIL<LU9DCE<EA2RCF<
      I0OJJ
Sent: 250512/0025z @:I0OJJ.ITA.EU [Rome] obcm1.08-6-g5b69
From: I0OJJ @ I0OJJ.ITA.EU (Gustavo)
To:   KEPS @ AMSAT
X-Info: This message was generated automatically


QST de W1STR

AMSAT Orbital Elements for Amateur Satellites in TLE Format
From Orbital Analysis Office
New England Sci-Tech STEM Education Center
Natick, MA May 12, 2025
To all radio amateurs


These element sets describe the orbits of various satellites 
in use by the amateur radio community. For details see:
www.amsat.org/keplerian-elements-formats/

A daily update of element sets is available at:
www.amsat.org/tle/daily-bulletin.txt
or without bulletin text:
www.amsat.org/tle/dailytle.txt


AO-07
1 07530U 74089B   25131.78599203 -.00000033  00000-0  85515-4 0  9993
2 07530 101.9938 135.7429 0012254 175.2711   8.6387 12.53689046310456
UO-11
1 14781U 84021B   25131.44279854  .00001709  00000-0  18597-3 0  9991
2 14781  97.7525  98.3939 0009465  75.7148 284.5120 14.89299606197301
AO-27
1 22825U 93061C   25131.61597648  .00000145  00000-0  72407-4 0  9990
2 22825  98.7383 193.0241 0008208 190.0515 170.0504 14.30789365649572
FO-29
1 24278U 96046B   25131.69639914  .00000027  00000-0  60905-4 0  9990
2 24278  98.5792  29.3861 0350870  57.5225 305.9326 13.53246980419118
NOAA-15
1 25338U 98030A   25131.85257157  .00000243  00000-0  11767-3 0  9997
2 25338  98.5370 157.6727 0011506  84.9988 275.2506 14.26962858404308
GO-32
1 25397U 98043D   25131.88985801  .00000087  00000-0  57769-4 0  9992
2 25397  98.9690 110.4131 0000545 348.3779  11.7387 14.24307703394425
ISS
1 25544U 98067A   25131.44528434  .00008925  00000-0  16723-3 0  9992
2 25544  51.6341 129.0745 0002358  99.2688 260.8568 15.49470087509464
NO-44
1 26931U 01043C   25131.58547977  .00000163  00000-0  92199-4 0  9997
2 26931  67.0506 202.8045 0005790 273.4783  86.5656 14.31720448232954
SO-50
1 27607U 02058C   25131.86575311  .00001280  00000-0  17752-3 0  9991
2 27607  64.5527 289.1632 0052899 340.6789  19.2309 14.81549484205182
CO-55
1 27844U 03031E   25131.73049661  .00000389  00000-0  18858-3 0  9993
2 27844  98.6766 140.3759 0008349 271.6129  88.4093 14.23973701134568
CO-57
1 27848U 03031J   25130.96247812  .00000328  00000-0  16397-3 0  9998
2 27848  98.6793 139.6455 0008337 293.8185  66.2119 14.23310803134203
RS-22
1 27939U 03042A   25131.86933020  .00001407  00000-0  23091-3 0  9992
2 27939  98.3260 300.6326 0012738 100.6085  36.3036 14.72279786156603
NOAA-18
1 28654U 05018A   25131.81431574  .00000231  00000-0  14599-3 0  9991
2 28654  98.8421 211.6136 0013816 206.7730 153.2731 14.13595529 29684
CO-58
1 28895U 05043F   25131.81246628  .00001750  00000-0  29379-3 0  9999
2 28895  98.2456 275.8117 0015236  42.7948 317.4441 14.70918802 42943
CO-65
1 32785U 08021C   25131.60327944  .00006745  00000-0  49039-3 0  9993
2 32785  97.7824 102.5612 0008792 317.4453  42.6090 15.04135996924722
AAUSAT2
1 32788U 08021F   25131.50393796  .00850086  32339-3  20989-2 0  9993
2 32788  97.5897 129.8796 0009013 155.9408 204.2290 15.95957439928917
CO-66
1 32791U 08021J   25131.90453029  .00012424  00000-0  61364-3 0  9993
2 32791  97.7260 111.3245 0001458 263.4899  96.6168 15.18016020926222
RS-30
1 32953U 08025A   25131.83193728  .00000036  00000-0  18825-3 0  9996
2 32953  82.5030 245.0524 0020555 108.8820 251.4491 12.43163963769969
NOAA-19
1 33591U 09005A   25131.88690594  .00000227  00000-0  14502-3 0  9992
2 33591  98.9985 196.4284 0014846  86.1242 274.1627 14.13359529838056
SRMSAT
1 37841U 11058D   25131.88861492  .00000453  00000-0  10222-3 0  9998
2 37841  19.9734 328.1721 0011793 109.3219 286.7837 14.11426795701276
ZACUBE-1
1 39417U 13066B   25131.83482576  .00005572  00000-0  48700-3 0  9996
2 39417  97.7790  89.0110 0045545 145.6869 214.7309 14.96375189620610
Delfi-N3xt
1 39428U 13066N   25131.51439966  .00008296  00000-0  84911-3 0  9998
2 39428  97.8367  49.5002 0087456  96.0575 265.0616 14.87924283614757
GOMX-1
1 39430U 13066Q   25131.84992846  .00001665  00000-0  26622-3 0  9996
2 39430  97.6868 352.2746 0131238 284.6363  74.0322 14.67534399611191
LO-74
1 39440U 13066AA  25131.39449381  .00004757  00000-0  48573-3 0  9992
2 39440  97.8484  76.1642 0060433 276.7413  82.6930 14.89737449617091
AO-73
1 39444U 13066AE  25131.63640792  .00008251  00000-0  62351-3 0  9995
2 39444  97.7808  93.4488 0042785 123.2734 237.2601 15.01897039619830
DTUSAT-2
1 40030U 14033W   25131.56091124  .00006837  00000-0  44989-3 0  9999
2 40030  98.0533 101.9899 0010280 147.3712 212.8152 15.07864743592024
EO-80
1 40032U 14033Y   25131.45004590  .00007955  00000-0  52156-3 0  9997
2 40032  98.0421 101.5687 0010687  97.1248 263.1194 15.07937427591989
LILACSAT-2
1 40908U 15049K   25131.86309885  .00011669  00000-0  31156-3 0  9991
2 40908  97.5072 151.5280 0007364 259.2290 100.8126 15.38249122533819
IO-86
1 40931U 15052B   25038.81889873  .00001817  00000-0  15548-3 0  9993
2 40931   6.0001 108.1159 0012838 187.7041 172.2889 14.78568669506492
Horyu-4
1 41340U 16012D   25131.63081061  .00025519  00000-0  70922-3 0  9994
2 41340  30.9974 326.4378 0006982 105.7274 254.4141 15.35623855508333
Lapan A3
1 41603U 16040E   25131.85006390  .00003542  00000-0  12556-3 0  9994
2 41603  97.1371 137.5889 0011568  22.2086 337.9654 15.29659509493392
CAS-2T
1 41847U 16066G   25131.22047543  .00000832  00000-0  12899-3 0  9997
2 41847  98.4205 205.9365 0345151 267.3214  88.8431 14.43400755446782
CAS-4B
1 42759U 17034B   25131.87632719  .00055979  00000-0  67485-3 0  9995
2 42759  43.0061 132.5015 0017843  90.0379 270.2529 15.59769288438115
CAS-4A
1 42761U 17034D   25131.86663639  .00062041  00000-0  71724-3 0  9991
2 42761  43.0098 129.9964 0019075  94.7095 265.5948 15.60794308438133
TechnoSat
1 42829U 17042E   25131.72390759  .00003486  00000-0  27291-3 0  9998
2 42829  97.3926 301.8151 0014558  24.1808 336.0098 15.01556843426399
AO-91
1 43017U 17073E   25131.12903799  .00007510  00000-0  39073-3 0  9993
2 43017  97.5286   2.6508 0172713 266.9310  91.2142 15.04275611404787
S-Net D
1 43186U 18014G   25131.43999332  .00004599  00000-0  27497-3 0  9999
2 43186  97.5656  34.6465 0008230 337.0766  23.0096 15.11536800397970
S-Net B
1 43187U 18014H   25131.70981287  .00005009  00000-0  29920-3 0  9990
2 43187  97.5663  34.8839 0008742 330.1581  29.9149 15.11522631398010
S-Net A
1 43188U 18014J   25131.24187443  .00004648  00000-0  27782-3 0  9994
2 43188  97.5670  34.5669 0008698 332.7362  27.3411 15.11540405397946
S-Net C
1 43189U 18014K   25131.71213894  .00004613  00000-0  27585-3 0  9990
2 43189  97.5689  35.0419 0009910 321.2842  38.7676 15.11519112396567
Ten-Koh
1 43677U 18084G   25131.45441179  .00002415  00000-0  19708-3 0  9995
2 43677  98.0889 302.5549 0006637  23.3217 336.8306 15.00441103355875
PO-101
1 43678U 18084H   25131.80440266  .00002336  00000-0  20213-3 0  9996
2 43678  98.1008 306.8367 0008486  26.2277 333.9372 14.98198140356077
QO-100
1 43700U 18090A   25131.81442160  .00000159  00000-0  00000+0 0  9994
2 43700   0.0040  26.2406 0002353  62.9385  99.6567  1.00274470 23895
MinXSS-2
1 43758U 18099A   25131.13581267  .00016113  00000-0  65083-3 0  9996
2 43758  97.5038 197.0942 0010701 254.2235 105.7822 15.24793646352489
AO-95
1 43770U 18099N   25131.09731164  .00009219  00000-0  47325-3 0  9996
2 43770  97.4940 189.5170 0009301 320.1437  39.9112 15.16702382352088
RANGE-A
1 43773U 18099R   25131.09130407  .00005395  00000-0  34650-3 0  9990
2 43773  97.4503 180.3495 0009840 295.5839  64.4372 15.08814958351774
MOVE-II
1 43780U 18099Y   25131.15204054  .00144879  00000-0  14542-2 0  9993
2 43780  97.4688 204.7897 0006031 216.9316 143.1529 15.65007501353186
SNUSat 2
1 43782U 18099AA  25131.40128152  .00007314  00000-0  40398-3 0  9998
2 43782  97.4621 186.8044 0010601 250.2735 109.7353 15.14165078352082
SnugLite
1 43784U 18099AC  25131.13390555  .00008924  00000-0  45454-3 0  9994
2 43784  97.4435 186.0455 0002105 234.4988 125.6049 15.17017348352177
ITASat 1
1 43786U 18099AE  25131.57349480  .00007310  00000-0  42188-3 0  9994
2 43786  97.4585 186.5667 0012968 309.6562  50.3524 15.12566707352070
EAGLET 1
1 43790U 18099AJ  25131.57118190  .00005153  00000-0  33124-3 0  9994
2 43790  97.4782 186.6140 0010619 290.6485  69.3604 15.08805635351692
ESEO
1 43792U 18099AL  25131.49945193  .00001607  00000-0  12528-3 0  9993
2 43792  97.4465 180.1952 0011267 263.7585  96.2357 15.02488119351450
CSIM
1 43793U 18099AM  25131.76463547  .00141474  00000-0  14312-2 0  9991
2 43793  97.4844 207.6643 0007869 214.7971 145.2774 15.64804582353120
JO-97
1 43803U 18099AX  25131.69387531  .00011088  00000-0  51485-3 0  9993
2 43803  97.4684 191.0395 0006425 235.4663 124.5966 15.20166681352382
Suomi 100
1 43804U 18099AY  25131.13533545  .00009137  00000-0  45430-3 0  9996
2 43804  97.4749 189.8642 0011166 245.1685 114.8388 15.17809512352232
ISAT
1 43879U 18111D   25131.50970257  .00022051  00000-0  78856-3 0  9997
2 43879  97.5983  45.2838 0006784 311.2989  48.7666 15.28801122349252
UWE-4
1 43880U 18111E   25131.61296568  .00016458  00000-0  65943-3 0  9994
2 43880  97.5928  44.0638 0010538 321.3231  38.7251 15.25063283349212
Sparrow
1 43881U 18111F   25131.51435721  .00023312  00000-0  80452-3 0  9999
2 43881  97.6122  48.0561 0006555   2.9943 357.1335 15.29954336349342
Prox-1
1 44339U 19036A   25131.68681648  .00012517  00000-0  16061-2 0  9993
2 44339  23.9972 251.5043 0007947  99.1982 260.9415 14.79378049313828
SONATE
1 44400U 19038Q   25131.58261963  .00184235  00000-0  90678-3 0  9991
2 44400  97.6925 154.9089 0002324  33.7337 326.4078 15.81653337324972
Taurus 1
1 44530U 19059C   25131.84884993  .00006908  00000-0  12830-2 0  9994
2 44530  98.6036 269.8913 0010824 126.3089 233.9114 14.65484606299739
